Regional Weather Roundup
Issued by NWS

Home | Current Version | Previous Version | Text Only | Print | Product List | Glossary On
Versions: 1 2 3 4 5 6 7 8 9 10 11 12 13 14 15 16 17 18 19 20 21 22 23 24 25 26 27 28 29 30 31 32 33 34 35 36 37 38 39 40 41 42 43 44 45 46 47 48 49 50
000
ASUS43 KLSX 141759
RWRMO

WEATHER SUMMARY FOR MISSOURI
NATIONAL WEATHER SERVICE SPRINGFIELD MO
100 PM CDT SUN SEP 14 2014

NOTE: "FAIR" INDICATES FEW OR NO CLOUDS BELOW 12,000 FEET WITH NO
       SIGNIFICANT WEATHER AND/OR OBSTRUCTIONS TO VISIBILITY.
       CURRENT SKY AND/OR WEATHER CONDITIONS ARE NOT AVAILABLE FOR
       CHILLICOTHE AND FARMINGTON.

MOZ001>031-035>038-043-044-053-054-141900-
...NORTHERN AND WESTERN MISSOURI...

CITY           SKY/WX    TMP DP  RH WIND       PRES   REMARKS
KANSAS CTY INT MOSUNNY   69  51  52 SE12      30.21F
6HR MIN TEMP:  52; 6HR MAX TEMP:  69;

KANSAS C DTWN  CLOUDY    70  51  51 SW9       30.20F
6HR MIN TEMP:  56; 6HR MAX TEMP:  71;

LEE`S SUMMIT   CLOUDY    68  53  58 S8        30.22F
6HR MIN TEMP:  53; 6HR MAX TEMP:  68;

ST JOSEPH      SUNNY     69  48  47 SE9       30.20F
6HR MIN TEMP:  52; 6HR MAX TEMP:  69;

KIRKSVILLE     SUNNY     65  46  50 S7        30.25F
6HR MIN TEMP:  46; 6HR MAX TEMP:  66;


$$
MOZ066>068-077>081-088>096-101>105-141900-
...SOUTHWEST MISSOURI...

CITY           SKY/WX    TMP DP  RH WIND       PRES   REMARKS
SPRINGFIELD    CLOUDY    69  50  50 S8        30.24F
6HR MIN TEMP:  49; 6HR MAX TEMP:  69;

JOPLIN         SUNNY     69  56  62 S6        30.24F
6HR MIN TEMP:  51; 6HR MAX TEMP:  69;


$$
MOZ032>034-039>042-045>050-055>058-069>072-141900-
...CENTRAL MISSOURI...

CITY           SKY/WX    TMP DP  RH WIND       PRES   REMARKS
COLUMBIA       PTSUNNY   66  50  56 S7        30.26F
6HR MIN TEMP:  47; 6HR MAX TEMP:  66;

JEFFERSON CITY PTSUNNY   68  47  46 VRB3      30.26F
6HR MIN TEMP:  46; 6HR MAX TEMP:  69;

ROLLA          PTSUNNY   66  46  48 W5        30.26F
6HR MIN TEMP:  47; 6HR MAX TEMP:  66;

SEDALIA        CLOUDY    67  52  58 VRB3      30.25F
6HR MIN TEMP:  51; 6HR MAX TEMP:  67;

OSAGE BEACH    CLOUDY    66  50  55 S6        30.26F

$$
MOZ051-052-059>065-141900-
...EAST CENTRAL MISSOURI...

CITY           SKY/WX    TMP DP  RH WIND       PRES   REMARKS
ST LOUIS INTL  MOSUNNY   69  45  41 NW5       30.29F
6HR MIN TEMP:  48; 6HR MAX TEMP:  69;

SPIRIT OF STL  PTSUNNY   66  45  46 N3        30.27F
6HR MIN TEMP:  43; 6HR MAX TEMP:  67;

ST CHARLES     PTSUNNY   65  45  48 CALM      30.28F
6HR MIN TEMP:  43; 6HR MAX TEMP:  67;


$$
MOZ072>076-082>087-097>100-106>115-141900-
...SOUTH CENTRAL AND SOUTHEAST MISSOURI...

CITY           SKY/WX    TMP DP  RH WIND       PRES   REMARKS
CAPE GIRARDEAU SUNNY     68  48  48 NW3       30.27F
6HR MIN TEMP:  45; 6HR MAX TEMP:  69;

FARMINGTON     PTSUNNY   66  45  45 NE5       30.30F
6HR MIN TEMP:  41; 6HR MAX TEMP:  66;

POPLAR BLUFF   SUNNY     70  44  39 VRB5      30.26F
6HR MIN TEMP:  49; 6HR MAX TEMP:  70;

WEST PLAINS    SUNNY     69  46  43 NE7       30.28F
6HR MIN TEMP:  45; 6HR MAX TEMP:  69;


$$



USA.gov is the U.S. government's official web portal to all federal, state and local government web resources and services.